This is the latest recevied weather packets stored in our database for station/object K4PAD. If no packets are shown the sender has not sent any weather packets the latest 10 day(s).
| Time | Temp. | Humidity | Pressure | Rain* | Wind** | Luminosity | Snow |
|---|---|---|---|---|---|---|---|
| 1778204278 | 27.78° C | 63% | 1014.2 hPa | 0 mm | - | 0 W/m² | - |
| 1778203974 | 27.78° C | 62% | 1013.9 hPa | 0 mm | - | 0 W/m² | - |
| 1778203672 | 28.33° C | 61% | 1014.1 hPa | 0 mm | - | 0 W/m² | - |
| 1778203369 | 28.33° C | 60% | 1014.1 hPa | 0 mm | - | 0 W/m² | - |
| 1778203067 | 28.33° C | 57% | 1014.1 hPa | 0 mm | - | 0 W/m² | - |
| 1778202764 | 28.33° C | 57% | 1013.9 hPa | 0 mm | - | 0 W/m² | - |
| 1778202461 | 28.89° C | 56% | 1013.9 hPa | 0 mm | - | 0 W/m² | - |
| 1778202159 | 28.89° C | 55% | 1013.6 hPa | 0 mm | - | 0 W/m² | - |
| 1778201856 | 28.89° C | 55% | 1013.7 hPa | 0 mm | - | 0 W/m² | - |
| 1778201553 | 28.89° C | 54% | 1013.4 hPa | 0 mm | - | 0 W/m² | - |
| 1778201248 | 28.89° C | 54% | 1013.3 hPa | 0 mm | - | 0 W/m² | - |
| 1778200945 | 28.89° C | 54% | 1013.3 hPa | 0 mm | - | 0 W/m² | - |
| 1778200641 | 29.44° C | 53% | 1013.1 hPa | 0 mm | - | 0 W/m² | - |
| 1778200339 | 29.44° C | 53% | 1013.4 hPa | 0 mm | - | 0 W/m² | - |
| 1778200035 | 29.44° C | 53% | 1013.1 hPa | 0 mm | - | 0 W/m² | - |
| 1778199733 | 29.44° C | 52% | 1013.1 hPa | 0 mm | - | 0 W/m² | - |
| 1778199428 | 29.44° C | 52% | 1013.2 hPa | 0 mm | - | 1 W/m² | - |
| 1778199124 | 30° C | 52% | 1013.6 hPa | 0 mm | - | 2 W/m² | - |
| 1778198821 | 30° C | 51% | 1013.2 hPa | 0 mm | - | 3 W/m² | - |
| 1778198518 | 30° C | 50% | 1013.2 hPa | 0 mm | - | 6 W/m² | - |
| 1778198214 | 30.56° C | 49% | 1013.5 hPa | 0 mm | - | 10 W/m² | - |
| 1778197912 | 30.56° C | 49% | 1013.5 hPa | 0 mm | - | 16 W/m² | - |
| 1778197608 | 30.56° C | 48% | 1013.5 hPa | 0 mm | - | 21 W/m² | - |
| 1778197305 | 30.56° C | 48% | 1013.3 hPa | 0 mm | - | 27 W/m² | - |
| 1778197002 | 30.56° C | 48% | 1013.4 hPa | 0 mm | - | 34 W/m² | - |
* Rain latest hour (hover to see other rain measurements)
** Current wind speed in m/s (hover to see current wind gust speed)